{"data":{"norad_id":59266,"epoch":"2026-09-21T12:46:48.227232Z","epoch_age_seconds":73067,"freshness":"FRESH","line1":"1 59266U 24050N   26264.53250263  .00000532  00000+0  26899-4 0  9992","line2":"2 59266  53.1627 350.5720 0001411  97.0558 263.0605 15.34387990140542","mean_motion":15.3438799,"eccentricity":0.0001411,"inclination_deg":53.1627,"raan_deg":350.572,"arg_perigee_deg":97.0558,"mean_anomaly_deg":263.0605,"bstar":2.6899e-5,"rev_number":14054,"period_min":93.848492648851,"perigee_km":461.77368909627,"apogee_km":463.7041842856,"semimajor_km":6840.8759366909,"source":"CELESTRAK","updated_at":"2026-09-22T09:00:48.872861Z"}}